Weather History for CWEU - February, 2013

Change the Weather History Date:

Sunday, February 10, 2013

  Actual Average Record
Temperature  
Mean Temperature -40 °F -  
Max Temperature -36 °F -30 °F -9 °F (2004)
Min Temperature -44 °F -43 °F -59 °F (2001)
Degree Days  
Heating Degree Days 105    
Moisture  
Dew Point -47 °F    
Average Humidity 67    
Maximum Humidity 74    
Minimum Humidity 52    
Precipitation  
Precipitation 0.00 in 0.00 in - ()
Sea Level Pressure  
Sea Level Pressure 30.05 in    
Wind  
Wind Speed 1 mph ()    
Max Wind Speed 4 mph    
Max Gust Speed -    
Visibility 15.0 miles    
Events Snow    
Averages and records for this station are not official NWS values.
T = Trace of Precipitation, MM = Missing Value Source: Averaged Metar Reports

Daily Weather History Graph

Daily Weather History Graph

Search for Another Location

Airport or City:

Trip Planner

Search our weather history database for the weather conditions in past years. The results will help you decide how hot, cold, wet, or windy it might be!

Date:

Astronomy

Dec. 31, 1969 Rise Set
Actual Time Sun does not set Sun does not set
Civil Twilight 9:33 AM CST 2:25 PM CST
Nautical Twilight 6:43 AM CST 5:15 PM CST
Astronomical Twilight 4:24 AM CST 7:36 PM CST
Moon 9:41 AM CST (2/10) 3:26 PM CST (2/10)
Length of Visible Light 4h 51m
Length of Day
0h 00m
New Moon, 0% of the Moon is Illuminated
Feb 10
New Moon
Feb 17
First Quarter
Feb 25
Full
Mar 4
Last Quarter
Mar 11
New

Hourly Weather History & Observations

Time (CST) Temp. Windchill Dew Point Humidity Pressure Visibility Wind Dir Wind Speed Gust Speed Precip Events Conditions
12:00 AM -41 °F - -47 °F 56% 30.04 in 15 mi East 2.3 mph - - Snow Snow
12:00 AM -41.8 °F - -47.2 °F 74% 30.04 in 15.0 mi East 2.3 mph - N/A   Clear
1:00 AM -41.8 °F - -47.2 °F 74% 30.05 in 15.0 mi Calm Calm - N/A   Clear
2:00 AM -40.0 °F -53.5 °F -47.2 °F 67% 30.06 in 15.0 mi ESE 3.5 mph - N/A   Clear
3:00 AM -40.0 °F - -47.2 °F 67% 30.08 in 15.0 mi East 2.3 mph - N/A   Clear
4:00 AM -40.0 °F -53.5 °F -47.2 °F 67% 30.08 in 15.0 mi East 3.5 mph - N/A   Clear
5:00 AM -41.8 °F - -49.0 °F 67% 30.09 in 15.0 mi East 2.3 mph - N/A   Clear
6:00 AM -42 °F - -48 °F 52% 30.08 in 15 mi Calm Calm - - Snow Snow
6:00 AM -41.8 °F - -49.0 °F 67% 30.08 in 15.0 mi Calm Calm - N/A   Clear
7:00 AM -41.8 °F - -47.2 °F 74% 30.08 in 15.0 mi Calm Calm - N/A   Partly Cloudy
8:00 AM -41.8 °F - -49.0 °F 67% 30.07 in 15.0 mi Calm Calm - N/A   Partly Cloudy
9:00 AM -41.8 °F - -49.0 °F 67% 30.06 in 15.0 mi Calm Calm - N/A   Partly Cloudy
10:00 AM -41.8 °F - -47.2 °F 74% 30.06 in 15.0 mi Calm Calm - N/A   Partly Cloudy
11:00 AM -41.8 °F - -47.2 °F 74% 30.04 in 15.0 mi Calm Calm - N/A   Scattered Clouds
12:00 PM -42 °F - -48 °F 53% 30.03 in 15 mi Calm Calm - - Snow Snow
12:00 PM -41.8 °F - -47.2 °F 74% 30.03 in 15.0 mi Calm Calm - N/A   Scattered Clouds
1:00 PM -41.8 °F - -49.0 °F 67% 30.02 in 15.0 mi Calm Calm - N/A   Scattered Clouds
2:00 PM -41.8 °F - -49.0 °F 67% 30.02 in 15.0 mi Calm Calm - N/A   Scattered Clouds
3:00 PM -41.8 °F - -47.2 °F 74% 30.03 in 15.0 mi Calm Calm - N/A   Partly Cloudy
4:00 PM -41.8 °F - -47.2 °F 74% 30.03 in 15.0 mi Calm Calm - N/A   Partly Cloudy
5:00 PM -40.0 °F - -47.2 °F 67% 30.04 in 15.0 mi Calm Calm - N/A   Partly Cloudy
6:00 PM -39 °F - -46 °F 52% 30.06 in 15 mi Calm Calm - - Snow Snow
6:00 PM -38.2 °F - -45.4 °F 67% 30.06 in 15.0 mi Calm Calm - N/A   Clear
7:00 PM -36.4 °F - -43.6 °F 67% 30.06 in 15.0 mi Calm Calm - N/A   Clear
8:00 PM -36.4 °F - -43.6 °F 67% 30.06 in 15.0 mi Calm Calm - N/A   Clear
9:00 PM -36.4 °F - -43.6 °F 67% 30.07 in 15.0 mi Calm Calm - N/A   Clear